カタログに戻る

STARLINK-5956

運用中通信VLEO
NORAD 55994·PAYLOAD·🇺🇸 United States

打ち上げ Mar 24, 2023 から Cape Canaveral Space Force Station

Loading…

次のパス (今後24時間)

TLE

最新Source: CelesTrak SupGP

元期: Sep 15, 2026, 02:42 UTC

1 55994C 23042J   26258.11298611 -.00049593  00000+0 -17958-2 0  2586
2 55994  43.0027  69.9033 0002123 269.0634 269.9553 15.27610655    16

AllMySatでSTARLINK-5956をリアルタイム追跡

Download on the App Store